Date String (YYYY-MM-DD hh:mm:ss) UTC,Instrument flags,Ambient pressure (hPa),Sample flow (lpm),Bypass flow (lpm),Sample temperature (°C),Ambient temperature (°C),ASC tube jacket temperature (°C),LED temperature (°C),Box temperature (°C),Sample RH (%),Span deviation,Mass concentration (μg/m³),Mass concentration (μg/m³),Mass concentration (μg/m³)
DateTimeUTC,F1_M11,P_M11,Q1_M11,Q2_M11,T1_M11,T2_M11,T3_M11,T4_M11,T5_M11,U1_M11,ZSPAN_M11,X0_M11,X2_M11,X1_M11
2021-10-12 10:00:00,,0815.9,5.00,0.00,29.1,28.0,00.0,38.3,30.8,14.6,0002.8,0025.30,0007.65,0004.55
2021-10-12 10:01:00,,0815.8,4.99,0.00,29.1,28.0,00.0,38.3,30.8,14.6,0002.6,0024.80,0007.74,0004.58
2021-10-12 10:02:00,,0815.8,5.01,0.00,29.1,28.0,00.0,38.3,30.8,14.6,0002.2,0024.57,0007.70,0004.59
2021-10-12 10:03:00,,0815.9,5.00,0.00,29.1,28.0,00.0,38.3,30.8,14.6,0002.7,0024.89,0007.78,0004.61
2021-10-12 10:04:00,,0815.8,5.00,0.00,29.1,28.0,00.0,38.3,30.8,14.6,0002.6,0025.09,0007.81,0004.64
2021-10-12 10:05:00,,0815.8,5.00,0.00,29.1,28.0,00.0,38.3,30.8,14.6,0002.7,0024.59,0007.88,0004.68
2021-10-12 10:06:00,,0815.7,5.01,0.00,29.1,28.0,00.0,38.3,30.8,14.6,0002.5,0024.04,0007.85,0004.69
2021-10-12 10:07:00,,0815.7,4.99,0.00,29.1,28.0,00.0,38.3,30.8,14.7,0002.8,0022.72,0007.76,0004.70
2021-10-12 10:08:00,,0815.7,5.01,0.00,29.1,28.0,00.0,38.3,30.8,14.7,0002.8,0023.41,0007.79,0004.73
2021-10-12 10:09:00,,0815.7,5.00,0.00,29.1,28.0,00.0,38.3,30.8,14.7,0002.8,0023.59,0007.84,0004.74
2021-10-12 10:10:00,,0815.8,5.00,0.00,29.1,28.0,00.0,38.2,30.8,14.7,0002.5,0023.79,0007.86,0004.75
2021-10-12 10:11:00,,0815.8,5.01,0.00,29.0,28.0,00.0,38.2,30.8,14.7,0002.6,0024.13,0007.94,0004.76
2021-10-12 10:12:00,,0815.8,5.00,0.00,29.0,28.0,00.0,38.2,30.8,14.7,0002.7,0024.35,0007.96,0004.76
2021-10-12 10:13:00,,0815.9,4.99,0.00,29.0,27.9,00.0,38.2,30.8,14.7,0003.0,0023.83,0008.02,0004.77
2021-10-12 10:14:00,,0815.7,4.99,0.00,29.0,27.9,00.0,38.2,30.8,14.7,0002.5,0023.83,0008.03,0004.78
2021-10-12 10:15:00,,0815.8,5.00,0.00,29.0,27.9,00.0,38.2,30.8,14.7,0002.4,0022.67,0008.00,0004.78
2021-10-12 10:16:00,,0815.7,5.01,0.00,29.0,27.9,00.0,38.2,30.8,14.7,0002.0,0023.17,0007.99,0004.78
2021-10-12 10:17:00,,0815.7,5.00,0.00,29.0,27.9,00.0,38.2,30.8,14.7,0001.7,0024.01,0007.94,0004.77
2021-10-12 10:18:00,,0815.7,5.01,0.00,29.0,27.9,00.0,38.2,30.8,14.7,0001.3,0024.50,0007.96,0004.76
2021-10-12 10:19:00,,0815.7,5.00,0.00,29.0,27.9,00.0,38.2,30.7,14.7,0001.7,0024.08,0007.97,0004.76
2021-10-12 10:20:00,,0815.8,5.01,0.00,29.0,27.9,00.0,38.2,30.7,14.7,0001.9,0023.77,0007.93,0004.76
2021-10-12 10:21:00,,0815.8,5.01,0.00,29.0,27.9,00.0,38.2,30.7,14.6,0002.3,0024.19,0007.88,0004.75
2021-10-12 10:22:00,,0815.8,5.00,0.00,29.0,27.9,00.0,38.2,30.7,14.6,0002.5,0024.74,0007.82,0004.74
2021-10-12 10:23:00,,0815.8,5.01,0.00,29.0,27.9,00.0,38.2,30.7,14.6,0002.6,0025.58,0007.78,0004.74
2021-10-12 10:24:00,,0815.9,4.99,0.00,29.0,27.9,00.0,38.2,30.7,14.6,0002.4,0026.56,0007.82,0004.74
2021-10-12 10:25:00,,0815.9,4.99,0.00,29.0,27.9,00.0,38.2,30.7,14.6,0003.0,0026.69,0007.80,0004.72
2021-10-12 10:26:00,,0815.9,5.01,0.00,29.0,27.9,00.0,38.2,30.7,14.6,0003.3,0028.07,0007.77,0004.72
2021-10-12 10:27:00,,0815.9,4.99,0.00,29.0,27.9,00.0,38.2,30.8,14.6,0003.4,0028.12,0007.80,0004.72
2021-10-12 10:28:00,,0816.0,5.00,0.00,29.0,27.9,00.0,38.2,30.7,14.6,0003.6,0027.08,0007.81,0004.73
2021-10-12 10:29:00,,0816.0,5.00,0.00,29.0,27.9,00.0,38.2,30.7,14.6,0003.2,0026.44,0007.82,0004.73
2021-10-12 10:30:00,,0815.9,5.01,0.00,29.0,28.0,00.0,38.2,30.7,14.6,0002.9,0026.67,0007.78,0004.72
2021-10-12 10:31:00,,0815.9,4.99,0.00,29.0,28.0,00.0,38.2,30.7,14.6,0003.0,0027.36,0007.71,0004.71
2021-10-12 10:32:00,,0815.9,5.02,0.00,29.0,28.0,00.0,38.2,30.7,14.6,0002.9,0027.43,0007.71,0004.71
2021-10-12 10:33:00,,0815.9,4.99,0.00,29.0,28.0,00.0,38.2,30.7,14.6,0002.8,0026.84,0007.77,0004.71
2021-10-12 10:34:00,,0815.9,5.00,0.00,29.0,28.0,00.0,38.2,30.7,14.6,0003.0,0026.23,0007.81,0004.70
2021-10-12 10:35:00,,0816.0,5.00,0.00,29.0,28.0,00.0,38.1,30.8,14.6,0003.3,0024.99,0007.75,0004.71
2021-10-12 10:36:00,,0816.0,5.02,0.00,29.0,28.0,00.0,38.1,30.7,14.6,0003.2,0024.41,0007.78,0004.72
2021-10-12 10:37:00,,0815.9,4.99,0.00,29.0,28.0,00.0,38.1,30.7,14.6,0002.8,0023.06,0007.80,0004.72
2021-10-12 10:38:00,,0815.9,5.02,0.00,29.0,27.9,00.0,38.1,30.8,14.6,0002.3,0022.62,0007.78,0004.72
2021-10-12 10:39:00,,0815.9,5.00,0.00,29.0,27.9,00.0,38.2,30.8,14.6,0002.2,0022.79,0007.79,0004.73
2021-10-12 10:40:00,,0815.9,5.00,0.00,29.0,27.9,00.0,38.1,30.8,14.6,0002.1,0023.77,0007.85,0004.74
2021-10-12 10:41:00,,0815.8,5.00,0.00,29.0,27.9,00.0,38.1,30.8,14.6,0002.0,0024.37,0007.88,0004.75
2021-10-12 10:42:00,,0815.8,5.00,0.00,29.0,27.9,00.0,38.1,30.7,14.6,0001.9,0023.60,0007.99,0004.77
2021-10-12 10:43:00,,0815.8,4.99,0.00,29.0,27.9,00.0,38.1,30.7,14.6,0001.7,0023.84,0008.03,0004.79
2021-10-12 10:44:00,,0815.8,5.00,0.00,29.0,27.9,00.0,38.1,30.7,14.7,0001.2,0024.60,0007.98,0004.81
2021-10-12 10:45:00,,0815.9,5.00,0.00,28.9,27.9,00.0,38.1,30.7,14.7,0001.1,0026.45,0007.96,0004.84
2021-10-12 10:46:00,,0815.9,5.00,0.00,28.9,27.9,00.0,38.1,30.7,14.7,0000.6,0027.19,0007.88,0004.84
2021-10-12 10:47:00,,0815.9,5.01,0.00,28.9,27.9,00.0,38.1,30.7,14.7,0000.8,0027.34,0007.82,0004.85
2021-10-12 10:48:00,,0815.9,5.00,0.00,28.9,27.9,00.0,38.1,30.7,14.7,0001.4,0028.29,0007.84,0004.86
2021-10-12 10:49:00,,0815.8,4.98,0.00,28.9,27.9,00.0,38.1,30.7,14.7,0002.0,0028.31,0007.80,0004.87
2021-10-12 10:50:00,,0815.8,5.01,0.00,28.9,27.9,00.0,38.1,30.7,14.6,0002.1,0028.54,0007.75,0004.86
2021-10-12 10:51:00,,0815.8,4.99,0.00,28.9,27.8,00.0,38.1,30.7,14.6,0002.7,0028.21,0007.63,0004.85
2021-10-12 10:52:00,,0815.8,5.01,0.00,28.9,27.8,00.0,38.1,30.6,14.6,0002.9,0028.16,0007.62,0004.86
2021-10-12 10:53:00,,0815.8,5.00,0.00,28.9,27.8,00.0,38.1,30.6,14.6,0002.6,0028.86,0007.55,0004.86
2021-10-12 10:54:00,,0815.9,5.01,0.00,28.9,27.8,00.0,38.1,30.6,14.6,0002.8,0028.12,0007.45,0004.85
2021-10-12 10:55:00,,0815.9,4.99,0.00,28.9,27.8,00.0,38.1,30.6,14.6,0003.3,0027.01,0007.42,0004.84
2021-10-12 10:56:00,,0815.9,5.01,0.00,28.9,27.8,00.0,38.1,30.6,14.6,0003.2,0025.68,0007.35,0004.82
2021-10-12 10:57:00,,0816.0,4.99,0.00,28.9,27.8,00.0,38.1,30.6,14.6,0003.2,0025.64,0007.41,0004.81
2021-10-12 10:58:00,,0816.0,5.00,0.00,28.9,27.8,00.0,38.1,30.6,14.6,0002.9,0025.72,0007.34,0004.79
2021-10-12 10:59:00,,0816.0,5.01,0.00,28.9,27.9,00.0,38.1,30.6,14.6,0002.8,0025.89,0007.30,0004.79
